Walhalla, ND

5:46 PM CST on December 04, 2016 (GMT -0600)
Walhalla

Weather History for K96D - May, 2013

Change the Weather History Date:

Saturday, May 18, 2013

  Actual Average (KGAF) Record (KGAF)
Temperature  
Mean Temperature 52 °F -  
Max Temperature 57 °F 72 °F 92 °F (1988)
Min Temperature 46 °F 45 °F 29 °F (1961)
Degree Days  
Heating Degree Days 14    
Growing Degree Days 2 (Base 50)    
Moisture  
Dew Point 52 °F    
Average Humidity 100    
Maximum Humidity 100    
Minimum Humidity 100    
Precipitation  
Precipitation 0.07 in - - ()
Sea Level Pressure  
Sea Level Pressure 29.87 in    
Wind  
Wind Speed 3 mph (NNE)    
Max Wind Speed 10 mph    
Max Gust Speed -    
Visibility 8 miles    
Events Rain    
Averages and records for this station are not official NWS values.
T = Trace of Precipitation, MM = Missing Value Source: NWS Daily Summary

Daily Weather History Graph

Daily Weather History Graph

Search for Another Location

Airport or City:

Trip Planner

Search our weather history database for the weather conditions in past years. The results will help you decide how hot, cold, wet, or windy it might be!

Date:

Astronomy

May. 18, 2013 Rise Set
Actual Time 5:45 AM CDT 9:11 PM CDT
Civil Twilight 5:06 AM CDT 9:50 PM CDT
Nautical Twilight 4:15 AM CDT 10:42 PM CDT
Astronomical Twilight 3:06 AM CDT 11:51 PM CDT
Moon 1:41 PM CDT (5/18) 2:15 AM CDT (5/18)
Length of Visible Light 16h 43m
Length of Day
15h 26m
First Quarter, 55% of the Moon is Illuminated
May 18
First Quarter
May 24
Full
May 31
Last Quarter
Jun 8
New
Jun 16
First Quarter

Hourly Weather History & Observations

Time (CDT) Temp. Windchill Dew Point Humidity Pressure Visibility Wind Dir Wind Speed Gust Speed Precip Events Conditions
12:15 AM 50.0 °F - 50.0 °F 100% 29.88 in 10.0 mi Calm Calm - N/A   Partly Cloudy
12:35 AM 48.2 °F - 48.2 °F 100% 29.87 in 10.0 mi Calm Calm - N/A   Clear
12:55 AM 48.2 °F - 48.2 °F 100% 29.88 in 10.0 mi Calm Calm - N/A   Clear
1:15 AM 48.2 °F - 48.2 °F 100% 29.87 in 10.0 mi WNW 4.6 mph - N/A   Partly Cloudy
1:35 AM 46.4 °F 45.2 °F 46.4 °F 100% 29.87 in 10.0 mi WNW 3.5 mph - N/A   Partly Cloudy
1:55 AM 46.4 °F - 46.4 °F 100% 29.87 in 10.0 mi Calm Calm - N/A   Scattered Clouds
2:15 AM 46.4 °F - 46.4 °F 100% 29.86 in 10.0 mi Calm Calm - N/A   Mostly Cloudy
2:35 AM 46.4 °F - 46.4 °F 100% 29.86 in 10.0 mi Calm Calm - N/A   Mostly Cloudy
2:55 AM 46.4 °F 42.9 °F 46.4 °F 100% 29.86 in 10.0 mi NW 6.9 mph - N/A   Overcast
3:15 AM 48.2 °F - 48.2 °F 100% 29.87 in 10.0 mi NNW 6.9 mph - N/A   Overcast
3:35 AM 48.2 °F - 48.2 °F 100% 29.87 in 10.0 mi NNW 3.5 mph - N/A   Overcast
3:55 AM 48.2 °F - 48.2 °F 100% 29.86 in 10.0 mi North 4.6 mph - N/A   Mostly Cloudy
4:15 AM 48.2 °F - 48.2 °F 100% 29.86 in 10.0 mi Calm Calm - N/A   Scattered Clouds
4:35 AM 48.2 °F - 48.2 °F 100% 29.86 in 10.0 mi Calm Calm - N/A   Clear
4:55 AM 46.4 °F - 46.4 °F 100% 29.86 in 10.0 mi Calm Calm - N/A   Mostly Cloudy
5:15 AM 46.4 °F 45.2 °F 46.4 °F 100% 29.86 in 10.0 mi NNW 3.5 mph - N/A   Mostly Cloudy
5:35 AM 48.2 °F - 48.2 °F 100% 29.87 in 10.0 mi Calm Calm - N/A   Overcast
5:55 AM 48.2 °F - 48.2 °F 100% 29.87 in 10.0 mi NW 4.6 mph - N/A   Overcast
6:15 AM 48.2 °F - 48.2 °F 100% 29.87 in 10.0 mi NW 5.8 mph - N/A   Overcast
6:35 AM 50.0 °F - 50.0 °F 100% 29.87 in 10.0 mi NW 4.6 mph - N/A   Overcast
6:55 AM 50.0 °F - 50.0 °F 100% 29.87 in 10.0 mi North 3.5 mph - N/A   Overcast
7:15 AM 50.0 °F - 50.0 °F 100% 29.86 in 10.0 mi North 3.5 mph - N/A   Overcast
7:35 AM 50.0 °F - 50.0 °F 100% 29.86 in 10.0 mi North 3.5 mph - N/A   Overcast
7:55 AM 50.0 °F - 50.0 °F 100% 29.86 in 10.0 mi NNE 3.5 mph - N/A   Overcast
8:15 AM 51.8 °F - 51.8 °F 100% 29.86 in 10.0 mi North 3.5 mph - N/A   Overcast
8:35 AM 53.6 °F - 53.6 °F 100% 29.85 in 10.0 mi NNW 3.5 mph - N/A   Overcast
8:55 AM 53.6 °F - 53.6 °F 100% 29.85 in 10.0 mi North 3.5 mph - N/A   Overcast
9:15 AM 53.6 °F - 53.6 °F 100% 29.86 in 10.0 mi Calm Calm - N/A Rain Light Rain
9:35 AM 53.6 °F - 53.6 °F 100% 29.86 in 10.0 mi West 4.6 mph - N/A Rain Light Rain
9:55 AM 53.6 °F - 53.6 °F 100% 29.86 in 6.0 mi WNW 3.5 mph - 0.01 in Rain Light Rain
10:15 AM 53.6 °F - 53.6 °F 100% 29.86 in 8.0 mi Calm Calm - N/A Rain Light Rain
10:35 AM 53.6 °F - 53.6 °F 100% 29.86 in 7.0 mi Calm Calm - N/A Rain Light Rain
10:55 AM 55.4 °F - 55.4 °F 100% 29.86 in 8.0 mi NE 3.5 mph - 0.01 in Rain Light Rain
11:15 AM 55.4 °F - 55.4 °F 100% 29.86 in 5.0 mi Calm Calm - N/A Rain Light Rain
11:35 AM 55.4 °F - 55.4 °F 100% 29.87 in 7.0 mi Calm Calm - N/A Rain Light Rain
11:55 AM 55.4 °F - 55.4 °F 100% 29.87 in 7.0 mi NE 3.5 mph - N/A Rain Light Rain
12:15 PM 55.4 °F - 55.4 °F 100% 29.86 in 3.0 mi NNE 4.6 mph - 0.01 in Rain Light Rain
12:35 PM 55.4 °F - 55.4 °F 100% 29.86 in 4.0 mi NE 4.6 mph - 0.02 in Rain Light Rain
12:55 PM 57.2 °F - 57.2 °F 100% 29.86 in 3.0 mi NNE 4.6 mph - 0.04 in Rain Light Rain
1:15 PM 55.4 °F - 55.4 °F 100% 29.86 in 4.0 mi NNE 4.6 mph - N/A Rain Light Rain
1:35 PM 57.2 °F - 57.2 °F 100% 29.86 in 5.0 mi NNE 4.6 mph - 0.01 in Rain Light Rain
2:15 PM 57.2 °F - 57.2 °F 100% 29.86 in 3.0 mi ENE 5.8 mph - N/A   Mostly Cloudy
2:35 PM 57.2 °F - 57.2 °F 100% 29.86 in 3.0 mi NE 5.8 mph - N/A   Mostly Cloudy
2:55 PM 55.4 °F - 55.4 °F 100% 29.86 in 1.8 mi NNE 6.9 mph - N/A Rain Light Rain
3:15 PM 55.4 °F - 55.4 °F 100% 29.86 in 1.8 mi NNE 8.1 mph - N/A Rain Light Rain
3:35 PM 55.4 °F - 55.4 °F 100% 29.86 in 2.5 mi NNE 9.2 mph - N/A Rain Light Rain
3:55 PM 55.4 °F - 55.4 °F 100% 29.86 in 4.0 mi NNE 8.1 mph - N/A   Mostly Cloudy
4:15 PM 55.4 °F - 55.4 °F 100% 29.87 in 3.0 mi NNE 8.1 mph - N/A   Mostly Cloudy
4:35 PM 55.4 °F - 55.4 °F 100% 29.87 in 5.0 mi NNE 8.1 mph - N/A   Mostly Cloudy
5:15 PM 57.2 °F - 57.2 °F 100% 29.87 in 3.0 mi NNE 9.2 mph - N/A   Mostly Cloudy
5:35 PM 55.4 °F - 55.4 °F 100% 29.87 in 4.0 mi NNE 9.2 mph - N/A   Mostly Cloudy
5:55 PM 55.4 °F - 55.4 °F 100% 29.88 in 9.0 mi NE 9.2 mph - N/A   Mostly Cloudy
6:15 PM 55.4 °F - 55.4 °F 100% 29.88 in 10.0 mi NE 5.8 mph - N/A   Overcast
6:35 PM 55.4 °F - 55.4 °F 100% 29.88 in 10.0 mi NNE 5.8 mph - N/A   Overcast
6:55 PM 55.4 °F - 55.4 °F 100% 29.88 in 10.0 mi NE 8.1 mph - N/A   Overcast
7:15 PM 55.4 °F - 55.4 °F 100% 29.87 in 10.0 mi NNE 9.2 mph - N/A   Overcast
7:35 PM 53.6 °F - 53.6 °F 100% 29.87 in 9.0 mi NNE 9.2 mph - N/A   Overcast
7:55 PM 53.6 °F - 53.6 °F 100% 29.87 in 10.0 mi NNE 10.4 mph - N/A   Overcast
8:15 PM 53.6 °F - 53.6 °F 100% 29.87 in 10.0 mi NE 8.1 mph - N/A   Overcast
8:35 PM 53.6 °F - 53.6 °F 100% 29.87 in 10.0 mi NE 9.2 mph - N/A   Overcast
8:55 PM 53.6 °F - 53.6 °F 100% 29.87 in 10.0 mi NNE 8.1 mph - N/A   Mostly Cloudy
9:15 PM 53.6 °F - 53.6 °F 100% 29.87 in 10.0 mi NE 5.8 mph - N/A   Overcast
9:35 PM 51.8 °F - 51.8 °F 100% 29.87 in 10.0 mi NE 10.4 mph - N/A   Overcast
9:55 PM 51.8 °F - 51.8 °F 100% 29.89 in 10.0 mi NE 5.8 mph - N/A   Overcast
10:15 PM 51.8 °F - 51.8 °F 100% 29.90 in 10.0 mi North 5.8 mph - N/A   Overcast
10:35 PM 51.8 °F - 51.8 °F 100% 29.90 in 10.0 mi North 8.1 mph - N/A   Overcast
10:55 PM 51.8 °F - 51.8 °F 100% 29.91 in 10.0 mi North 6.9 mph - N/A   Overcast
11:15 PM 51.8 °F - 51.8 °F 100% 29.90 in 10.0 mi North 6.9 mph - N/A   Overcast
11:35 PM 51.8 °F - 51.8 °F 100% 29.89 in 10.0 mi North 8.1 mph - N/A   Overcast
11:55 PM 51.8 °F - 51.8 °F 100% 29.89 in 10.0 mi North 8.1 mph - N/A   Overcast